,,Stat6,,Stat2,,Stat8,,Stat9,,Stat10,,Wind1,,Wind1,
time,status,PA1M_AVG,status,PR1M_SUM,status,RH1M_AVG,status,SR1M_AVG,status,TA1M_AVG,status,W1dAve1m,status,W1sAve1m,
2004-01-13, 00:00:00,VALID,918.62,VALID,0,VALID,91.3063,VALID,-0.101885,VALID,21.223,VALID,126,VALID,1.27852,
2004-01-13, 00:01:00,VALID,918.628,VALID,0,VALID,91.23,VALID,-0.101885,VALID,21.2321,VALID,161,VALID,0.898251,
2004-01-13, 00:02:00,VALID,918.624,VALID,0,VALID,91.3292,VALID,-0.101885,VALID,21.252,VALID,134,VALID,0.781441,
2004-01-13, 00:03:00,VALID,918.645,VALID,0,VALID,91.2821,VALID,-0.101885,VALID,21.2547,VALID,137,VALID,1.42365,
2004-01-13, 00:04:00,VALID,918.659,VALID,0,VALID,91.1105,VALID,-0.0849042,VALID,21.2577,VALID,142,VALID,1.61701,
2004-01-13, 00:05:00,VALID,918.657,VALID,0,VALID,90.9795,VALID,-0.0849042,VALID,21.2873,VALID,142,VALID,1.25164,
2004-01-13, 00:06:00,VALID,918.675,VALID,0,VALID,90.996,VALID,-0.101885,VALID,21.29,VALID,115,VALID,1.04847,
2004-01-13, 00:07:00,VALID,918.67,VALID,0,VALID,90.86,VALID,-0.0679233,VALID,21.3032,VALID,137,VALID,1.19247,
2004-01-13, 00:08:00,VALID,918.67,VALID,0,VALID,90.7849,VALID,-0.0679233,VALID,21.3097,VALID,142,VALID,1.35156,
2004-01-13, 00:09:00,VALID,918.66,VALID,0,VALID,90.5726,VALID,-0.0679233,VALID,21.3161,VALID,131,VALID,1.93768,
2004-01-13, 00:10:00,VALID,918.674,VALID,0,VALID,90.6336,VALID,-0.101885,VALID,21.3358,VALID,153,VALID,1.19141,
2004-01-13, 00:11:00,VALID,918.675,VALID,0,VALID,90.5204,VALID,-0.101885,VALID,21.3387,VALID,149,VALID,1.38494,
2004-01-13, 00:12:00,VALID,918.657,VALID,0,VALID,90.6107,VALID,-0.0509425,VALID,21.3444,VALID,150,VALID,1.27126,
2004-01-13, 00:13:00,VALID,918.662,VALID,0,VALID,90.6641,VALID,0,VALID,21.3342,VALID,133,VALID,1.60103,
2004-01-13, 00:14:00,VALID,918.667,VALID,0,VALID,90.7582,VALID,0.0169808,VALID,21.3414,VALID,136,VALID,0.902951,
2004-01-13, 00:15:00,VALID,918.679,VALID,0,VALID,90.7366,VALID,-0.0169808,VALID,21.318,VALID,182,VALID,0.484193,
2004-01-13, 00:16:00,VALID,918.694,VALID,0,VALID,90.8511,VALID,-0.0169808,VALID,21.325,VALID,192,VALID,0.104106,
2004-01-13, 00:17:00,VALID,918.698,VALID,0,VALID,90.9579,VALID,-0.0169808,VALID,21.3409,VALID,142,VALID,0.208705,
2004-01-13, 00:18:00,VALID,918.72,VALID,0,VALID,90.8956,VALID,-0.0169808,VALID,21.3344,VALID,138,VALID,0.206861,
2004-01-13, 00:19:00,VALID,918.732,VALID,0,VALID,91.2529,VALID,0,VALID,21.325,VALID,159,VALID,0.320676,
2004-01-13, 00:20:00,VALID,918.744,VALID,0,VALID,91.642,VALID,-0.0169808,VALID,21.2798,VALID,239,VALID,0.526486,
2004-01-13, 00:21:00,VALID,918.739,VALID,0,VALID,92.232,VALID,0.0169808,VALID,21.2079,VALID,239,VALID,0.104106,
2004-01-13, 00:22:00,VALID,918.71,VALID,0,VALID,92.3427,VALID,-0.0169808,VALID,21.167,VALID,266,VALID,0.595152,
2004-01-13, 00:23:00,VALID,918.676,VALID,0,VALID,92.6911,VALID,-0.0169808,VALID,21.0986,VALID,288,VALID,0.30522,
2004-01-13, 00:24:00,VALID,918.644,VALID,0,VALID,93.1717,VALID,-0.0169808,VALID,21.0755,VALID,287,VALID,0.0886628,
2004-01-13, 00:25:00,VALID,918.589,VALID,0,VALID,92.9619,VALID,-0.0169808,VALID,21.0496,VALID,303,VALID,0.209704,
2004-01-13, 00:26:00,VALID,918.551,VALID,0,VALID,92.7267,VALID,0,VALID,21.0364,VALID,347,VALID,0.252663,
2004-01-13, 00:27:00,VALID,918.515,VALID,0,VALID,92.8195,VALID,0,VALID,21.0537,VALID,347,VALID,0.014881,
2004-01-13, 00:28:00,VALID,918.489,VALID,0,VALID,92.8907,VALID,-0.0169808,VALID,21.0407,VALID,347,VALID,0.0330078,
2004-01-13, 00:29:00,VALID,918.462,VALID,0,VALID,93.0039,VALID,-0.0169808,VALID,21.0375,VALID,347,VALID,0.00818452,
2004-01-13, 00:30:00,VALID,918.436,VALID,0,VALID,93.2582,VALID,-0.0169808,VALID,21.0407,VALID,347,VALID,0,
2004-01-13, 00:31:00,VALID,918.418,VALID,0,VALID,93.2836,VALID,0,VALID,21.0268,VALID,347,VALID,0,
2004-01-13, 00:32:00,VALID,918.418,VALID,0,VALID,93.3688,VALID,0,VALID,21.0335,VALID,347,VALID,0.126817,
2004-01-13, 00:33:00,VALID,918.398,VALID,0,VALID,93.3142,VALID,0.0169808,VALID,21.0305,VALID,347,VALID,0.253815,
2004-01-13, 00:34:00,VALID,918.397,VALID,0,VALID,93.3091,VALID,0,VALID,21.0146,VALID,9,VALID,0.142113,
2004-01-13, 00:35:00,VALID,918.414,VALID,0,VALID,93.1883,VALID,-0.0169808,VALID,21.0014,VALID,112,VALID,0.556686,
2004-01-13, 00:36:00,VALID,918.407,VALID,0,VALID,93.098,VALID,0,VALID,20.9823,VALID,154,VALID,1.03628,
2004-01-13, 00:37:00,VALID,918.417,VALID,0,VALID,93.1946,VALID,-0.0169808,VALID,20.9689,VALID,180,VALID,0.26598,
2004-01-13, 00:38:00,VALID,918.42,VALID,0,VALID,93.1603,VALID,0.0169808,VALID,20.9691,VALID,143,VALID,0.788517,
2004-01-13, 00:39:00,VALID,918.419,VALID,0,VALID,93.2086,VALID,-0.0169808,VALID,20.956,VALID,151,VALID,0.75109,
2004-01-13, 00:40:00,VALID,918.421,VALID,0,VALID,93.1005,VALID,0,VALID,20.9627,VALID,172,VALID,0.644626,
2004-01-13, 00:41:00,VALID,918.413,VALID,0,VALID,93.1387,VALID,0,VALID,20.9595,VALID,178,VALID,0.216406,
2004-01-13, 00:42:00,VALID,918.403,VALID,0,VALID,93.1552,VALID,0.0339617,VALID,20.9726,VALID,170,VALID,0.259146,
2004-01-13, 00:43:00,VALID,918.4,VALID,0,VALID,93.1399,VALID,-0.101885,VALID,20.9764,VALID,133,VALID,0.574405,
2004-01-13, 00:44:00,VALID,918.377,VALID,0,VALID,93.1171,VALID,-0.101885,VALID,20.9836,VALID,141,VALID,0.692294,
2004-01-13, 00:45:00,VALID,918.366,VALID,0,VALID,93.1972,VALID,-0.101885,VALID,20.961,VALID,142,VALID,0.723474,
2004-01-13, 00:46:00,VALID,918.339,VALID,0,VALID,93.2697,VALID,-0.101885,VALID,20.9513,VALID,139,VALID,0.858984,
2004-01-13, 00:47:00,VALID,918.329,VALID,0,VALID,93.2735,VALID,-0.101885,VALID,20.9417,VALID,141,VALID,0.982599,
2004-01-13, 00:48:00,VALID,918.31,VALID,0,VALID,93.29,VALID,-0.101885,VALID,20.9287,VALID,159,VALID,0.741642,
2004-01-13, 00:49:00,VALID,918.308,VALID,0,VALID,93.337,VALID,-0.101885,VALID,20.939,VALID,174,VALID,0.324128,
2004-01-13, 00:50:00,VALID,918.295,VALID,0,VALID,93.3994,VALID,-0.101885,VALID,20.9481,VALID,178,VALID,0.157965,
2004-01-13, 00:51:00,VALID,918.293,VALID,0,VALID,93.3078,VALID,-0.0679233,VALID,20.9543,VALID,157,VALID,0.753815,
2004-01-13, 00:52:00,VALID,918.279,VALID,0,VALID,93.2595,VALID,-0.101885,VALID,20.961,VALID,173,VALID,0.56267,
2004-01-13, 00:53:00,VALID,918.29,VALID,0,VALID,93.1514,VALID,-0.101885,VALID,20.9481,VALID,168,VALID,0.499609,
2004-01-13, 00:54:00,VALID,918.268,VALID,0,VALID,93.1514,VALID,-0.0849042,VALID,20.9449,VALID,168,VALID,0.811806,
2004-01-13, 00:55:00,VALID,918.267,VALID,0,VALID,92.9416,VALID,-0.101885,VALID,20.9355,VALID,163,VALID,1.28663,
2004-01-13, 00:56:00,VALID,918.254,VALID,0,VALID,93.0649,VALID,-0.101885,VALID,20.9551,VALID,147,VALID,0.957849,
2004-01-13, 00:57:00,VALID,918.238,VALID,0,VALID,92.953,VALID,-0.0509425,VALID,20.9508,VALID,151,VALID,1.64879,
2004-01-13, 00:58:00,VALID,918.211,VALID,0,VALID,92.7826,VALID,0.0169808,VALID,20.9333,VALID,131,VALID,1.50208,
2004-01-13, 00:59:00,VALID,918.195,VALID,0,VALID,92.7178,VALID,0,VALID,20.9525,VALID,124,VALID,1.91315,
2004-01-13, 01:00:00,VALID,918.189,VALID,0,VALID,92.7063,VALID,0,VALID,20.9624,VALID,128,VALID,0.995916,
2004-01-13, 01:01:00,VALID,918.175,VALID,0,VALID,92.555,VALID,0.0169808,VALID,20.9656,VALID,118,VALID,1.98633,
2004-01-13, 01:02:00,VALID,918.168,VALID,0,VALID,92.6847,VALID,0,VALID,20.9718,VALID,117,VALID,1.55041,
2004-01-13, 01:03:00,VALID,918.165,VALID,0,VALID,92.9797,VALID,0,VALID,20.9589,VALID,136,VALID,1.10703,
2004-01-13, 01:04:00,VALID,918.164,VALID,0,VALID,93.0013,VALID,0,VALID,20.9433,VALID,127,VALID,1.34487,
2004-01-13, 01:05:00,VALID,918.165,VALID,0,VALID,93.0191,VALID,0,VALID,20.9175,VALID,130,VALID,1.36947,
2004-01-13, 01:06:00,VALID,918.148,VALID,0,VALID,93.0611,VALID,0,VALID,20.9145,VALID,124,VALID,1.46076,
2004-01-13, 01:07:00,VALID,918.149,VALID,0,VALID,93.234,VALID,0.0169808,VALID,20.9013,VALID,85,VALID,0.951936,
2004-01-13, 01:08:00,VALID,918.118,VALID,0,VALID,93.0891,VALID,0,VALID,20.8884,VALID,109,VALID,1.59707,
2004-01-13, 01:09:00,VALID,918.102,VALID,0,VALID,93.1018,VALID,0,VALID,20.8916,VALID,119,VALID,1.64958,
2004-01-13, 01:10:00,VALID,918.072,VALID,0,VALID,92.9874,VALID,0.0339617,VALID,20.8817,VALID,105,VALID,1.57031,
2004-01-13, 01:11:00,VALID,918.046,VALID,0,VALID,93.1438,VALID,0,VALID,20.8857,VALID,78,VALID,0.967035,
2004-01-13, 01:12:00,VALID,918.003,VALID,0,VALID,93.276,VALID,-0.0169808,VALID,20.8795,VALID,104,VALID,0.925604,
2004-01-13, 01:13:00,VALID,917.968,VALID,0,VALID,93.2468,VALID,-0.0509425,VALID,20.8604,VALID,85,VALID,1.12617,
2004-01-13, 01:14:00,VALID,917.944,VALID,0,VALID,93.4133,VALID,-0.0169808,VALID,20.8502,VALID,91,VALID,1.17769,
2004-01-13, 01:15:00,VALID,917.915,VALID,0,VALID,93.4337,VALID,-0.0509425,VALID,20.831,VALID,103,VALID,1.48605,
2004-01-13, 01:16:00,VALID,917.903,VALID,0,VALID,93.5189,VALID,-0.0509425,VALID,20.8248,VALID,102,VALID,1.25215,
2004-01-13, 01:17:00,VALID,917.901,VALID,0,VALID,93.7033,VALID,-0.0679233,VALID,20.7923,VALID,97,VALID,0.824695,
2004-01-13, 01:18:00,VALID,917.924,VALID,0,VALID,93.8012,VALID,-0.0169808,VALID,20.7826,VALID,66,VALID,0.804142,
2004-01-13, 01:19:00,VALID,917.944,VALID,0,VALID,93.8444,VALID,-0.0169808,VALID,20.7635,VALID,105,VALID,0.781613,
2004-01-13, 01:20:00,VALID,917.97,VALID,0,VALID,93.8482,VALID,-0.0169808,VALID,20.7568,VALID,112,VALID,0.977325,
2004-01-13, 01:21:00,VALID,917.986,VALID,0,VALID,93.8724,VALID,-0.0679233,VALID,20.757,VALID,149,VALID,0.787704,
2004-01-13, 01:22:00,VALID,918,VALID,0,VALID,93.8546,VALID,-0.0509425,VALID,20.757,VALID,140,VALID,0.555618,
2004-01-13, 01:23:00,VALID,918.017,VALID,0,VALID,93.8457,VALID,-0.0509425,VALID,20.7506,VALID,136,VALID,0.848133,
2004-01-13, 01:24:00,VALID,918.032,VALID,0,VALID,93.8978,VALID,-0.0679233,VALID,20.7667,VALID,145,VALID,0.291921,
2004-01-13, 01:25:00,VALID,918.028,VALID,0,VALID,93.8597,VALID,-0.0339617,VALID,20.7664,VALID,171,VALID,0.567835,
2004-01-13, 01:26:00,VALID,918.016,VALID,0,VALID,93.7732,VALID,-0.0339617,VALID,20.7829,VALID,178,VALID,0.443638,
2004-01-13, 01:27:00,VALID,918.011,VALID,0,VALID,93.6728,VALID,-0.0169808,VALID,20.7796,VALID,174,VALID,0.301711,
2004-01-13, 01:28:00,VALID,917.997,VALID,0,VALID,93.6257,VALID,0,VALID,20.7893,VALID,181,VALID,0.551136,
2004-01-13, 01:29:00,VALID,917.997,VALID,0,VALID,93.6333,VALID,-0.0679233,VALID,20.8057,VALID,181,VALID,0.623811,
2004-01-13, 01:30:00,VALID,917.978,VALID,0,VALID,93.7478,VALID,0,VALID,20.7952,VALID,167,VALID,0.501389,
2004-01-13, 01:31:00,VALID,917.986,VALID,0,VALID,93.8482,VALID,-0.0339617,VALID,20.7985,VALID,172,VALID,0.390244,
2004-01-13, 01:32:00,VALID,917.975,VALID,0,VALID,93.8101,VALID,-0.0679233,VALID,20.8025,VALID,180,VALID,0.770774,
2004-01-13, 01:33:00,VALID,917.967,VALID,0,VALID,93.6562,VALID,0,VALID,20.7925,VALID,174,VALID,0.985795,
2004-01-13, 01:34:00,VALID,917.951,VALID,0,VALID,93.6753,VALID,-0.0339617,VALID,20.7724,VALID,167,VALID,0.516183,
2004-01-13, 01:35:00,VALID,917.94,VALID,0,VALID,93.7134,VALID,-0.0169808,VALID,20.7791,VALID,180,VALID,0.422447,
2004-01-13, 01:36:00,VALID,917.937,VALID,0,VALID,93.6664,VALID,-0.0339617,VALID,20.7791,VALID,189,VALID,0.467361,
2004-01-13, 01:37:00,VALID,917.924,VALID,0,VALID,93.7338,VALID,-0.0339617,VALID,20.7861,VALID,216,VALID,0.0563227,
2004-01-13, 01:38:00,VALID,917.911,VALID,0,VALID,93.7529,VALID,-0.0679233,VALID,20.8025,VALID,195,VALID,0.536272,
2004-01-13, 01:39:00,VALID,917.906,VALID,0,VALID,93.6918,VALID,-0.0509425,VALID,20.799,VALID,199,VALID,0.172656,
2004-01-13, 01:40:00,VALID,917.89,VALID,0,VALID,93.6867,VALID,-0.0509425,VALID,20.8087,VALID,195,VALID,0.021875,
2004-01-13, 01:41:00,VALID,917.877,VALID,0,VALID,93.6944,VALID,-0.0509425,VALID,20.8186,VALID,195,VALID,0.220486,
2004-01-13, 01:42:00,VALID,917.86,VALID,0,VALID,93.7554,VALID,-0.0169808,VALID,20.8119,VALID,195,VALID,0.290483,
2004-01-13, 01:43:00,VALID,917.852,VALID,0,VALID,93.7936,VALID,-0.0679233,VALID,20.8022,VALID,195,VALID,0.193496,
2004-01-13, 01:44:00,VALID,917.831,VALID,0,VALID,93.8203,VALID,-0.0509425,VALID,20.7925,VALID,195,VALID,0.0115327,
2004-01-13, 01:45:00,VALID,917.826,VALID,0,VALID,93.6778,VALID,-0.0169808,VALID,20.7958,VALID,175,VALID,0.366824,
2004-01-13, 01:46:00,VALID,917.816,VALID,0,VALID,93.5074,VALID,-0.0509425,VALID,20.8022,VALID,170,VALID,0.273819,
2004-01-13, 01:47:00,VALID,917.81,VALID,0,VALID,93.3879,VALID,-0.0509425,VALID,20.8179,VALID,170,VALID,0.171875,
2004-01-13, 01:48:00,VALID,917.794,VALID,0,VALID,93.1845,VALID,-0.0339617,VALID,20.8442,VALID,170,VALID,0.0524009,
2004-01-13, 01:49:00,VALID,917.786,VALID,0,VALID,93.5049,VALID,-0.0339617,VALID,20.8701,VALID,170,VALID,0.128634,
2004-01-13, 01:50:00,VALID,917.763,VALID,0,VALID,93.7338,VALID,-0.0679233,VALID,20.8636,VALID,170,VALID,0.103609,
2004-01-13, 01:51:00,VALID,917.741,VALID,0,VALID,94.011,VALID,-0.0509425,VALID,20.8798,VALID,170,VALID,0.23522,
2004-01-13, 01:52:00,VALID,917.717,VALID,0,VALID,94.0835,VALID,-0.0679233,VALID,20.8639,VALID,75,VALID,0.509146,
2004-01-13, 01:53:00,VALID,917.706,VALID,0,VALID,94.0212,VALID,-0.0169808,VALID,20.8343,VALID,11,VALID,0.70141,
2004-01-13, 01:54:00,VALID,917.697,VALID,0,VALID,94.039,VALID,-0.0339617,VALID,20.7993,VALID,11,VALID,0.646019,
2004-01-13, 01:55:00,VALID,917.678,VALID,0,VALID,94.2768,VALID,-0.0339617,VALID,20.7831,VALID,11,VALID,0.571615,
2004-01-13, 01:56:00,VALID,917.66,VALID,0,VALID,94.4217,VALID,-0.0339617,VALID,20.76,VALID,17,VALID,0.560014,
2004-01-13, 01:57:00,VALID,917.647,VALID,0,VALID,94.3353,VALID,-0.0849042,VALID,20.7379,VALID,43,VALID,0.533594,
2004-01-13, 01:58:00,VALID,917.619,VALID,0,VALID,94.2984,VALID,-0.0339617,VALID,20.7153,VALID,48,VALID,0.560865,
2004-01-13, 01:59:00,VALID,917.6,VALID,0,VALID,94.2183,VALID,-0.0509425,VALID,20.7091,VALID,48,VALID,0.683061,
2004-01-13, 02:00:00,VALID,917.573,VALID,0,VALID,94.2259,VALID,-0.0339617,VALID,20.7086,VALID,48,VALID,0.776736,
2004-01-13, 02:01:00,VALID,917.536,VALID,0,VALID,94.1903,VALID,-0.0509425,VALID,20.7153,VALID,48,VALID,0.876367,
2004-01-13, 02:02:00,VALID,917.504,VALID,0,VALID,94.2882,VALID,-0.0339617,VALID,20.7279,VALID,56,VALID,0.876524,
2004-01-13, 02:03:00,VALID,917.472,VALID,0,VALID,94.3632,VALID,-0.0509425,VALID,20.6956,VALID,70,VALID,0.685724,
2004-01-13, 02:04:00,VALID,917.447,VALID,0,VALID,94.4497,VALID,-0.0339617,VALID,20.6639,VALID,70,VALID,0.982851,
2004-01-13, 02:05:00,VALID,917.418,VALID,0,VALID,94.671,VALID,-0.0339617,VALID,20.6246,VALID,54,VALID,0.861793,
2004-01-13, 02:06:00,VALID,917.396,VALID,0,VALID,94.7981,VALID,0,VALID,20.6248,VALID,53,VALID,0.686523,
2004-01-13, 02:07:00,VALID,917.378,VALID,0,VALID,94.7829,VALID,0,VALID,20.6087,VALID,70,VALID,0.669207,
2004-01-13, 02:08:00,VALID,917.361,VALID,0,VALID,94.7854,VALID,-0.0339617,VALID,20.5918,VALID,81,VALID,0.76181,
2004-01-13, 02:09:00,VALID,917.351,VALID,0,VALID,94.849,VALID,-0.0169808,VALID,20.5858,VALID,78,VALID,0.847049,
2004-01-13, 02:10:00,VALID,917.347,VALID,0,VALID,94.9431,VALID,-0.0169808,VALID,20.5697,VALID,87,VALID,0.842708,
2004-01-13, 02:11:00,VALID,917.33,VALID,0,VALID,95.0842,VALID,0,VALID,20.5342,VALID,86,VALID,0.995458,
2004-01-13, 02:12:00,VALID,917.311,VALID,0,VALID,95.2317,VALID,-0.0169808,VALID,20.518,VALID,101,VALID,0.646839,
2004-01-13, 02:13:00,VALID,917.286,VALID,0,VALID,95.4072,VALID,-0.101885,VALID,20.5126,VALID,107,VALID,0.777344,
2004-01-13, 02:14:00,VALID,917.281,VALID,0,VALID,95.5255,VALID,-0.101885,VALID,20.4857,VALID,70,VALID,0.702035,
2004-01-13, 02:15:00,VALID,917.251,VALID,0,VALID,95.5585,VALID,-0.0849042,VALID,20.4631,VALID,97,VALID,0.739769,
2004-01-13, 02:16:00,VALID,917.227,VALID,0,VALID,95.6208,VALID,-0.0679233,VALID,20.4467,VALID,73,VALID,1.02416,
2004-01-13, 02:17:00,VALID,917.196,VALID,0,VALID,95.7429,VALID,-0.101885,VALID,20.4418,VALID,96,VALID,1.07794,
2004-01-13, 02:18:00,VALID,917.173,VALID,0,VALID,95.8319,VALID,-0.101885,VALID,20.3988,VALID,102,VALID,0.930804,
2004-01-13, 02:19:00,VALID,917.131,VALID,0,VALID,95.9655,VALID,-0.0849042,VALID,20.3958,VALID,104,VALID,1.10229,
2004-01-13, 02:20:00,VALID,917.098,VALID,0,VALID,96.043,VALID,-0.101885,VALID,20.3734,VALID,99,VALID,1.08501,
2004-01-13, 02:21:00,VALID,917.082,VALID,0,VALID,96.1231,VALID,-0.101885,VALID,20.3605,VALID,102,VALID,0.974516,
2004-01-13, 02:22:00,VALID,917.066,VALID,0,VALID,96.1333,VALID,-0.101885,VALID,20.321,VALID,120,VALID,1.0426,
2004-01-13, 02:23:00,VALID,917.043,VALID,0,VALID,96.2007,VALID,-0.0679233,VALID,20.2924,VALID,128,VALID,1.43877,
2004-01-13, 02:24:00,VALID,917.017,VALID,0,VALID,96.2706,VALID,-0.0849042,VALID,20.2726,VALID,138,VALID,1.38063,
2004-01-13, 02:25:00,VALID,917.004,VALID,0,VALID,96.3037,VALID,-0.0509425,VALID,20.2728,VALID,139,VALID,1.77292,
2004-01-13, 02:26:00,VALID,917.013,VALID,0,VALID,96.2541,VALID,-0.0509425,VALID,20.286,VALID,140,VALID,1.24479,
2004-01-13, 02:27:00,VALID,917.011,VALID,0,VALID,96.2274,VALID,-0.0679233,VALID,20.3024,VALID,145,VALID,1.90084,
2004-01-13, 02:28:00,VALID,917.014,VALID,0,VALID,96.1104,VALID,-0.0849042,VALID,20.3016,VALID,146,VALID,1.62636,
2004-01-13, 02:29:00,VALID,917.021,VALID,0,VALID,96.1956,VALID,-0.0849042,VALID,20.3347,VALID,144,VALID,1.29652,
2004-01-13, 02:30:00,VALID,917.008,VALID,0,VALID,96.3164,VALID,-0.0849042,VALID,20.3178,VALID,146,VALID,1.67727,
2004-01-13, 02:31:00,VALID,917.002,VALID,0,VALID,96.5122,VALID,-0.0509425,VALID,20.3016,VALID,146,VALID,2.25677,
2004-01-13, 02:32:00,VALID,916.992,VALID,0,VALID,96.6292,VALID,-0.0679233,VALID,20.2924,VALID,143,VALID,1.65625,
2004-01-13, 02:33:00,VALID,916.97,VALID,0,VALID,96.6419,VALID,0.0339617,VALID,20.2777,VALID,139,VALID,1.94895,
2004-01-13, 02:34:00,VALID,916.947,VALID,0,VALID,96.6381,VALID,0.0509425,VALID,20.2715,VALID,144,VALID,1.37157,
2004-01-13, 02:35:00,VALID,916.928,VALID,0,VALID,96.5644,VALID,0,VALID,20.272,VALID,137,VALID,1.51353,
2004-01-13, 02:36:00,VALID,916.911,VALID,0,VALID,96.2986,VALID,0.0169808,VALID,20.285,VALID,146,VALID,1.57106,
2004-01-13, 02:37:00,VALID,916.906,VALID,0,VALID,96.0761,VALID,0.0339617,VALID,20.3009,VALID,139,VALID,1.02976,
2004-01-13, 02:38:00,VALID,916.895,VALID,0,VALID,95.8065,VALID,0.0339617,VALID,20.3197,VALID,143,VALID,1.26486,
2004-01-13, 02:39:00,VALID,916.879,VALID,0,VALID,95.6208,VALID,0.0339617,VALID,20.356,VALID,151,VALID,1.11585,
2004-01-13, 02:40:00,VALID,916.874,VALID,0,VALID,95.4848,VALID,0,VALID,20.3784,VALID,179,VALID,0.813045,
2004-01-13, 02:41:00,VALID,916.864,VALID,0,VALID,95.3195,VALID,0.0509425,VALID,20.391,VALID,178,VALID,1.01871,
2004-01-13, 02:42:00,VALID,916.86,VALID,0,VALID,95.0359,VALID,0.0339617,VALID,20.4109,VALID,169,VALID,1.41146,
2004-01-13, 02:43:00,VALID,916.868,VALID,0,VALID,94.896,VALID,0.0169808,VALID,20.4432,VALID,193,VALID,1.03125,
2004-01-13, 02:44:00,VALID,916.87,VALID,0,VALID,94.7574,VALID,0.0169808,VALID,20.4626,VALID,189,VALID,0.825581,
2004-01-13, 02:45:00,VALID,916.882,VALID,0,VALID,94.676,VALID,0.0169808,VALID,20.4658,VALID,197,VALID,0.79723,
2004-01-13, 02:46:00,VALID,916.896,VALID,0,VALID,94.7231,VALID,0.0339617,VALID,20.4758,VALID,198,VALID,0.439986,
2004-01-13, 02:47:00,VALID,916.917,VALID,0,VALID,94.6544,VALID,0.0169808,VALID,20.4519,VALID,200,VALID,0.755087,
2004-01-13, 02:48:00,VALID,916.934,VALID,0,VALID,94.6964,VALID,0.0339617,VALID,20.4395,VALID,209,VALID,0.650213,
2004-01-13, 02:49:00,VALID,916.929,VALID,0,VALID,94.732,VALID,0.0339617,VALID,20.4335,VALID,189,VALID,0.850229,
2004-01-13, 02:50:00,VALID,916.915,VALID,0,VALID,94.7155,VALID,0.0679233,VALID,20.4201,VALID,170,VALID,0.875,
2004-01-13, 02:51:00,VALID,916.904,VALID,0,VALID,94.6951,VALID,0.0169808,VALID,20.4141,VALID,116,VALID,0.806424,
2004-01-13, 02:52:00,VALID,916.866,VALID,0,VALID,94.7778,VALID,0.0339617,VALID,20.4012,VALID,132,VALID,0.998666,
2004-01-13, 02:53:00,VALID,916.843,VALID,0,VALID,94.8604,VALID,0.0509425,VALID,20.3724,VALID,151,VALID,0.859756,
2004-01-13, 02:54:00,VALID,916.816,VALID,0,VALID,94.9889,VALID,0,VALID,20.3366,VALID,143,VALID,1.27219,
2004-01-13, 02:55:00,VALID,916.796,VALID,0,VALID,95.1046,VALID,0,VALID,20.2946,VALID,134,VALID,1.02772,
2004-01-13, 02:56:00,VALID,916.779,VALID,0,VALID,95.1211,VALID,0.0339617,VALID,20.2651,VALID,148,VALID,1.08315,
2004-01-13, 02:57:00,VALID,916.757,VALID,0,VALID,94.7434,VALID,0.0169808,VALID,20.2788,VALID,118,VALID,1.41443,
2004-01-13, 02:58:00,VALID,916.766,VALID,0,VALID,93.8025,VALID,-0.0169808,VALID,20.3387,VALID,147,VALID,1.73047,
2004-01-13, 02:59:00,VALID,916.766,VALID,0,VALID,93.2735,VALID,-0.0849042,VALID,20.4294,VALID,144,VALID,1.59395,
2004-01-13, 03:00:00,VALID,916.785,VALID,0,VALID,92.8399,VALID,-0.0679233,VALID,20.4932,VALID,139,VALID,1.79154,
2004-01-13, 03:01:00,VALID,916.776,VALID,0,VALID,92.4507,VALID,-0.0509425,VALID,20.5548,VALID,154,VALID,1.6635,
2004-01-13, 03:02:00,VALID,916.781,VALID,0,VALID,92.2791,VALID,-0.0509425,VALID,20.6065,VALID,165,VALID,0.524858,
2004-01-13, 03:03:00,VALID,916.813,VALID,0,VALID,92.2486,VALID,-0.0849042,VALID,20.6326,VALID,186,VALID,0.643043,
2004-01-13, 03:04:00,VALID,916.825,VALID,0,VALID,92.3783,VALID,-0.0849042,VALID,20.6619,VALID,129,VALID,1.17893,
2004-01-13, 03:05:00,VALID,916.866,VALID,0,VALID,92.4406,VALID,-0.0679233,VALID,20.6579,VALID,132,VALID,0.484947,
2004-01-13, 03:06:00,VALID,916.895,VALID,0,VALID,92.5258,VALID,-0.101885,VALID,20.642,VALID,123,VALID,0.574695,
2004-01-13, 03:07:00,VALID,916.927,VALID,0,VALID,92.6834,VALID,-0.0679233,VALID,20.6296,VALID,113,VALID,0.367932,
2004-01-13, 03:08:00,VALID,916.961,VALID,0,VALID,92.7877,VALID,-0.0679233,VALID,20.5971,VALID,113,VALID,0.378534,
2004-01-13, 03:09:00,VALID,916.989,VALID,0,VALID,92.9085,VALID,-0.0849042,VALID,20.5683,VALID,106,VALID,0.202939,
2004-01-13, 03:10:00,VALID,916.999,VALID,0,VALID,92.9823,VALID,-0.0849042,VALID,20.5451,VALID,143,VALID,0.387463,
2004-01-13, 03:11:00,VALID,917.025,VALID,0,VALID,92.9518,VALID,-0.101885,VALID,20.5389,VALID,156,VALID,0.211133,
2004-01-13, 03:12:00,VALID,917.054,VALID,0,VALID,92.9416,VALID,-0.101885,VALID,20.5387,VALID,148,VALID,0.137962,
2004-01-13, 03:13:00,VALID,917.065,VALID,0,VALID,92.9479,VALID,-0.0849042,VALID,20.5387,VALID,46,VALID,0.387649,
2004-01-13, 03:14:00,VALID,917.077,VALID,0,VALID,92.9568,VALID,-0.101885,VALID,20.5454,VALID,9,VALID,0.309411,
2004-01-13, 03:15:00,VALID,917.087,VALID,0,VALID,93.009,VALID,-0.101885,VALID,20.529,VALID,314,VALID,0.579289,
2004-01-13, 03:16:00,VALID,917.105,VALID,0,VALID,93.1895,VALID,-0.101885,VALID,20.523,VALID,269,VALID,0.761242,
2004-01-13, 03:17:00,VALID,917.117,VALID,0,VALID,93.6104,VALID,-0.101885,VALID,20.4746,VALID,261,VALID,0.793445,
2004-01-13, 03:18:00,VALID,917.107,VALID,0,VALID,94.025,VALID,-0.0509425,VALID,20.4167,VALID,259,VALID,0.462126,
2004-01-13, 03:19:00,VALID,917.097,VALID,0,VALID,94.3645,VALID,-0.101885,VALID,20.3645,VALID,259,VALID,0.432664,
2004-01-13, 03:20:00,VALID,917.078,VALID,0,VALID,94.6722,VALID,-0.0849042,VALID,20.3357,VALID,259,VALID,0.0794922,
2004-01-13, 03:21:00,VALID,917.066,VALID,0,VALID,94.9482,VALID,-0.0849042,VALID,20.3163,VALID,259,VALID,0.00181686,
2004-01-13, 03:22:00,VALID,917.061,VALID,0,VALID,95.1415,VALID,-0.0679233,VALID,20.3134,VALID,259,VALID,0,
2004-01-13, 03:23:00,VALID,917.056,VALID,0,VALID,95.275,VALID,-0.101885,VALID,20.2969,VALID,259,VALID,0,
2004-01-13, 03:24:00,VALID,917.059,VALID,0,VALID,95.2559,VALID,-0.0679233,VALID,20.2736,VALID,208,VALID,0.212391,
2004-01-13, 03:25:00,VALID,917.054,VALID,0,VALID,95.2762,VALID,-0.0509425,VALID,20.2418,VALID,124,VALID,0.798328,
2004-01-13, 03:26:00,VALID,917.039,VALID,0,VALID,95.4759,VALID,-0.0849042,VALID,20.1995,VALID,124,VALID,0.461301,
2004-01-13, 03:27:00,VALID,917.029,VALID,0,VALID,95.6692,VALID,-0.0169808,VALID,20.1503,VALID,124,VALID,0.319767,
2004-01-13, 03:28:00,VALID,917.021,VALID,0,VALID,95.8408,VALID,0.0169808,VALID,20.1409,VALID,124,VALID,0.0990189,
2004-01-13, 03:29:00,VALID,917.026,VALID,0,VALID,95.9248,VALID,0.0169808,VALID,20.1248,VALID,133,VALID,0.868096,
2004-01-13, 03:30:00,VALID,917.025,VALID,0,VALID,95.9769,VALID,0.0169808,VALID,20.085,VALID,130,VALID,0.816406,
2004-01-13, 03:31:00,VALID,917.023,VALID,0,VALID,96.0875,VALID,0.0339617,VALID,20.0495,VALID,111,VALID,0.683308,
2004-01-13, 03:32:00,VALID,917.018,VALID,0,VALID,96.1486,VALID,0.0169808,VALID,20.0567,VALID,108,VALID,0.726563,